Vorticity
10 6 3 1 12 -2 4 2 0 6 15 10 7 1 15 7 6 6 0 4 3 9 12 13 2 2 13 10 8 -0 -2 -3 2 2 5 18 5 7 10 -0 5 3 6 9
10 1 2 5 9 6 8 4 6 -4 -11 27 -0 -0 10 11 9 5 5 7 5 -2 9 11 12 12 2 3 9 10 8 5 4 6 13 22 22 10 9 9 3 2 3 9
6 4 9 -0 8 9 6 8 7 5 5 5 12 9 6 5 2 19 27 2 3 9 6 10 10 8 7 6 17 5 5 7 9 14 16 22 12 11 12 11 4 2 3 4
0 3 5 6 8 3 3 6 10 8 3 13 4 3 7 20 31 56 26 4 30 16 15 25 5 12 7 -2 18 -4 3 7 14 11 9 13 19 15 11 13 15 1 5 8
-3 0 9 -7 23 16 1 1 4 9 7 9 7 9 10 5 3 11 4 11 14 25 12 9 25 6 4 8 9 6 7 1 14 11 13 13 19 16 7 13 21 7 4 5
2 13 7 5 -8 -13 24 8 4 3 6 41 9 -16 20 7 9 4 4 7 5 19 8 8 18 5 3 6 11 11 2 11 13 11 13 22 21 24 22 2 18 6 4 2
17 -1 13 5 12 6 -4 7 27 31 26 -9 24 26 -34 4 17 36 23 11 17 10 11 7 1 -1 -4 11 8 8 10 17 12 7 13 20 23 16 15 14 17 6 5 6
-0 65 2 20 -6 8 14 -4 -55 3 21 7 29 -3 2 5 2 15 16 9 4 17 7 5 2 -1 1 13 4 9 12 16 10 7 16 5 21 10 11 14 7 3 8 13
28 8 12 4 6 14 14 14 -4 -18 -24 38 9 19 27 27 9 1 1 -1 21 -21 9 6 -1 11 5 1 3 11 10 18 12 7 12 14 13 14 14 11 12 15 17 9
20 20 10 -1 31 13 8 12 18 5 10 -2 15 10 5 24 3 4 8 2 7 37 2 3 0 4 3 -2 -12 17 10 12 15 11 11 9 10 9 10 10 9 7 12 14
-18 -31 5 36 25 2 12 7 -17 30 -24 -12 11 44 1 -4 -7 60 16 20 17 10 13 8 11 11 4 -12 -1 20 7 6 15 14 11 10 11 11 11 6 7 8 7 10
17 -9 15 6 38 -1 9 0 8 -19 30 35 -47 14 24 8 12 22 11 14 10 17 29 6 6 2 2 -4 10 18 11 4 15 15 10 8 9 11 11 10 11 10 9 10
-1 25 -2 46 28 40 20 7 22 -15 19 7 -33 48 22 -44 -28 -12 -19 6 17 21 11 3 9 10 -19 -3 9 17 17 10 13 15 13 12 11 13 13 13 9 8 8 9
43 -19 19 -56 5 -17 49 5 8 11 -22 21 6 3 -24 -16 4 23 35 13 12 7 -15 -4 1 5 -10 1 7 16 17 10 15 14 13 15 13 11 7 6 9 10 10 7
-40 47 -3 32 -18 17 -35 14 11 -15 22 -37 16 5 -15 8 2 10 3 -1 -9 -2 12 3 11 -6 -3 -1 0 19 17 14 14 19 14 13 11 6 6 6 5 5 5 5
44 8 39 -5 18 12 7 1 14 24 -7 16 -9 14 8 -10 -10 -23 23 15 12 15 19 2 12 -4 -8 0 1 12 18 10 16 16 17 15 9 4 6 6 3 5 5 6
-35 15 74 32 28 10 47 -14 39 16 5 4 13 -3 10 8 9 13 -5 -12 9 10 25 7 -5 4 5 -10 9 12 19 5 17 18 17 13 9 5 3 3 6 7 9 9
-28 -17 -4 64 6 20 36 23 -26 2 30 7 -5 -3 8 6 5 -21 1 2 -1 7 9 6 4 21 6 -16 24 13 12 9 14 13 17 13 5 5 6 8 8 6 9 10
16 -13 -1 14 14 6 23 6 33 -7 16 2 37 -9 10 13 9 7 23 4 5 -9 -5 -6 15 8 8 -12 11 13 11 9 12 12 18 7 7 6 5 5 6 11 12 2
22 13 -4 -18 -3 26 -12 34 19 -22 42 -6 -16 23 11 14 17 14 12 10 5 9 8 0 -13 9 11 10 5 5 14 11 18 15 19 14 5 4 5 8 11 1 5 3
9 23 17 15 31 35 8 49 -1 19 24 28 50 5 -17 17 13 24 18 14 7 4 0 6 23 25 15 5 -6 11 15 16 16 20 17 16 28 30 21 12 3 17 5 7
-1 21 16 36 20 31 -6 6 27 -9 40 -15 70 -3 -6 -21 1 2 -6 -11 6 -5 19 13 11 7 14 16 19 20 21 13 16 21 26 19 7 -0 11 -10 -1 14 34 28
11 -59 46 41 -17 -10 52 37 -7 4 21 43 16 26 44 23 9 5 -2 23 11 -1 29 13 -4 5 14 14 17 14 11 17 28 19 8 0 3 8 14 13 32 20 11 8
25 37 19 52 72 4 -29 49 -1 -36 -4 11 2 0 8 7 3 2 -12 -0 12 18 -6 7 14 23 18 20 19 16 21 24 4 1 -0 5 5 11 21 12 7 5 5 6
-16 58 27 -0 -10 41 42 -3 -35 -19 10 16 19 11 1 15 18 3 4 11 10 15 17 19 23 19 23 24 18 24 25 -0 -1 -1 -6 9 22 13 9 7 6 7 6 6
2 22 13 29 13 3 -0 41 -1 22 33 16 25 11 8 -9 6 21 18 17 15 16 11 9 16 25 13 18 30 7 -2 -2 6 25 26 9 10 8 7 6 6 7 8 8
Height
3112 3115 3109 3116 3121 3124 3127 3125 3124 3125 3126 3128 3129 3131 3132 3134 3135 3134 3134 3134 3133 3134 3136 3138 3141 3141 3142 3145 3145 3143 3140 3140 3137 3139 3141 3143 3144 3144 3145 3147 3149 3151 3153 3157
3109 3099 3107 3115 3119 3120 3122 3121 3119 3121 3122 3124 3125 3124 3127 3128 3127 3128 3128 3129 3129 3128 3129 3131 3134 3136 3137 3137 3136 3138 3139 3134 3132 3131 3132 3134 3135 3137 3139 3141 3143 3144 3148 3151
3093 3094 3107 3110 3112 3114 3114 3115 3118 3119 3121 3119 3120 3117 3119 3120 3119 3117 3118 3121 3122 3121 3122 3124 3128 3131 3131 3130 3131 3132 3133 3133 3127 3123 3124 3125 3126 3127 3129 3133 3136 3139 3142 3147
3087 3097 3099 3102 3103 3108 3107 3112 3115 3117 3118 3114 3118 3107 3111 3112 3111 3110 3111 3114 3114 3114 3115 3118 3122 3125 3123 3123 3124 3127 3127 3126 3122 3119 3117 3117 3118 3119 3123 3127 3130 3133 3137 3141
3069 3084 3090 3093 3093 3103 3098 3110 3110 3112 3112 3113 3110 3109 3101 3106 3106 3106 3105 3107 3107 3107 3110 3113 3116 3117 3115 3116 3120 3121 3120 3118 3116 3113 3112 3110 3110 3112 3115 3119 3123 3127 3133 3135
3068 3079 3083 3081 3091 3096 3102 3105 3106 3107 3107 3101 3096 3103 3093 3098 3100 3100 3101 3102 3103 3104 3107 3109 3108 3107 3106 3112 3114 3113 3112 3110 3109 3108 3105 3103 3104 3105 3108 3114 3117 3123 3125 3129
3061 3064 3072 3080 3085 3089 3095 3098 3098 3097 3096 3079 3095 3096 3083 3089 3093 3093 3096 3096 3099 3101 3103 3102 3100 3101 3101 3106 3107 3106 3105 3102 3101 3101 3100 3099 3099 3099 3102 3107 3112 3116 3120 3123
3052 3056 3058 3062 3068 3076 3082 3088 3087 3084 3082 3076 3085 3074 3072 3082 3085 3085 3088 3090 3095 3096 3096 3096 3093 3095 3096 3099 3100 3100 3098 3095 3095 3095 3096 3096 3096 3096 3099 3103 3107 3111 3114 3116
3044 3041 3054 3059 3062 3070 3069 3076 3073 3083 3078 3074 3070 3067 3069 3073 3077 3078 3080 3084 3088 3090 3089 3089 3089 3087 3088 3092 3091 3091 3090 3090 3090 3090 3090 3091 3092 3094 3096 3099 3102 3104 3107 3110
3032 3038 3044 3047 3057 3058 3061 3066 3074 3077 3075 3072 3062 3061 3061 3068 3070 3071 3071 3075 3078 3082 3081 3083 3083 3081 3084 3086 3086 3084 3083 3083 3083 3085 3086 3086 3088 3089 3092 3095 3097 3099 3102 3104
3030 3034 3033 3039 3040 3041 3051 3054 3060 3064 3066 3063 3053 3053 3061 3064 3065 3063 3064 3069 3071 3075 3077 3076 3077 3076 3079 3082 3081 3078 3077 3077 3078 3079 3081 3082 3084 3085 3086 3088 3090 3093 3094 3096
3017 3023 3024 3024 3028 3031 3038 3041 3049 3048 3046 3045 3048 3048 3054 3056 3059 3062 3062 3063 3066 3068 3070 3070 3070 3069 3072 3076 3075 3073 3072 3072 3073 3074 3075 3077 3078 3078 3080 3081 3083 3085 3087 3090
3013 3015 3018 3019 3020 3023 3022 3029 3035 3037 3040 3040 3041 3032 3052 3048 3052 3056 3060 3060 3061 3063 3063 3064 3064 3063 3064 3066 3068 3066 3066 3065 3065 3067 3068 3070 3072 3073 3074 3075 3077 3079 3081 3082
3006 3002 3003 3004 3003 3013 3013 3016 3021 3029 3030 3032 3034 3030 3040 3044 3046 3048 3052 3055 3053 3055 3056 3058 3058 3055 3056 3054 3056 3060 3058 3058 3058 3059 3061 3064 3065 3068 3070 3071 3072 3073 3074 3076
2989 2985 2994 2996 3002 3006 3006 3007 3010 3015 3021 3022 3024 3023 3026 3036 3043 3042 3044 3047 3049 3048 3047 3049 3051 3049 3049 3049 3046 3051 3052 3051 3051 3052 3053 3056 3058 3061 3064 3065 3066 3067 3068 3069
2981 2976 2982 2984 2988 2994 2993 2996 3000 3006 3012 3014 3018 3014 3019 3029 3035 3037 3037 3037 3038 3040 3040 3041 3041 3043 3041 3038 3041 3041 3044 3044 3043 3043 3046 3048 3051 3055 3057 3058 3059 3060 3060 3060
2971 2972 2971 2967 2977 2980 2978 2984 2988 2992 2998 3003 3003 3003 3014 3016 3021 3025 3030 3031 3030 3032 3031 3032 3033 3032 3032 3032 3032 3031 3034 3036 3035 3035 3038 3042 3044 3046 3048 3050 3051 3051 3051 3051
2959 2962 2959 2957 2968 2953 2960 2973 2977 2982 2988 2995 3000 2994 2999 3004 3008 3016 3018 3020 3022 3022 3022 3023 3024 3021 3020 3025 3024 3024 3024 3027 3027 3027 3031 3035 3036 3037 3039 3041 3042 3042 3042 3043
2948 2952 2953 2949 2946 2950 2954 2961 2969 2969 2966 2975 2981 2986 2990 2994 2999 3002 3000 3008 3011 3012 3013 3013 3013 3010 3010 3014 3017 3016 3016 3017 3017 3019 3022 3024 3027 3029 3029 3029 3031 3031 3030 3029
2935 2942 2947 2944 2932 2931 2940 2946 2957 2962 2954 2967 2973 2976 2975 2984 2988 2981 2995 2997 2998 3000 3000 3003 3002 3000 3000 3002 3005 3006 3006 3006 3006 3010 3013 3016 3017 3018 3019 3019 3019 3016 3016 3016
2923 2927 2924 2924 2920 2925 2931 2938 2949 2946 2942 2947 2956 2965 2968 2972 2976 2979 2981 2983 2984 2985 2988 2990 2991 2991 2990 2990 2994 2994 2994 2995 2998 3001 3004 3005 3006 3006 3004 3004 3005 3005 3006 3006
2909 2917 2911 2917 2915 2919 2923 2928 2926 2927 2934 2939 2944 2949 2956 2959 2963 2965 2967 2969 2970 2972 2976 2978 2981 2981 2980 2979 2980 2982 2984 2987 2989 2992 2993 2993 2995 2994 2994 2996 2998 2998 2997 2997
2898 2897 2900 2895 2888 2895 2909 2918 2925 2932 2931 2931 2937 2940 2945 2950 2953 2955 2957 2958 2962 2964 2965 2967 2968 2969 2969 2969 2970 2972 2975 2978 2981 2982 2983 2984 2985 2986 2986 2985 2988 2989 2989 2989
2878 2885 2888 2888 2889 2900 2901 2912 2916 2919 2921 2924 2929 2932 2935 2939 2942 2945 2947 2949 2950 2953 2954 2955 2956 2958 2959 2960 2961 2964 2966 2969 2971 2973 2974 2975 2975 2976 2977 2979 2980 2981 2982 2982
2873 2880 2871 2876 2883 2890 2899 2906 2908 2911 2912 2918 2921 2925 2929 2929 2930 2935 2939 2940 2940 2942 2943 2943 2944 2949 2951 2952 2953 2956 2959 2961 2963 2965 2966 2966 2968 2970 2972 2973 2974 2974 2973 2972
2862 2865 2867 2861 2875 2887 2891 2896 2897 2900 2903 2909 2913 2914 2917 2920 2920 2926 2929 2930 2932 2933 2934 2934 2938 2941 2942 2944 2948 2950 2952 2954 2955 2956 2956 2958 2961 2964 2965 2965 2965 2964 2963 2962